This is the latest recevied weather packets stored in our database for station/object N8TWM-13. If no packets are shown the sender has not sent any weather packets the latest 10 day(s).
| Time | Temp. | Humidity | Pressure | Rain* | Wind** | Luminosity | Snow |
|---|---|---|---|---|---|---|---|
| 1778100414 | 12.22° C | 54% | 1012 hPa | 0 mm | - | 144 W/m² | - |
| 1778100111 | 12.22° C | 53% | 1012.2 hPa | 0 mm | - | 173 W/m² | - |
| 1778099809 | 11.67° C | 53% | 1012.2 hPa | 0 mm | - | 179 W/m² | - |
| 1778099506 | 11.67° C | 55% | 1012.4 hPa | 0 mm | - | 171 W/m² | - |
| 1778099204 | 12.22° C | 56% | 1012.3 hPa | 0 mm | - | 150 W/m² | - |
| 1778098899 | 12.22° C | 56% | 1012.5 hPa | 0 mm | - | 135 W/m² | - |
| 1778098597 | 12.22° C | 55% | 1012.6 hPa | 0 mm | - | 161 W/m² | - |
| 1778098293 | 12.22° C | 56% | 1012.6 hPa | 0 mm | - | 184 W/m² | - |
| 1778097990 | 12.22° C | 56% | 1012.4 hPa | 0 mm | - | 165 W/m² | - |
| 1778097687 | 12.22° C | 56% | 1012.4 hPa | 0 mm | - | 138 W/m² | - |
| 1778097383 | 12.22° C | 56% | 1012.5 hPa | 0 mm | - | 201 W/m² | - |
| 1778097080 | 12.22° C | 57% | 1012.4 hPa | 0 mm | - | 149 W/m² | - |
| 1778096777 | 12.22° C | 56% | 1012.4 hPa | 0 mm | - | 126 W/m² | - |
| 1778096473 | 12.22° C | 56% | 1012.2 hPa | 0 mm | - | 164 W/m² | - |
| 1778096171 | 12.78° C | 58% | 1012.5 hPa | 0 mm | - | 164 W/m² | - |
| 1778095868 | 12.22° C | 56% | 1012.6 hPa | 0 mm | - | 210 W/m² | - |
| 1778095565 | 12.22° C | 57% | 1012.4 hPa | 0 mm | - | 170 W/m² | - |
| 1778095261 | 12.22° C | 56% | 1012.5 hPa | 0 mm | - | 187 W/m² | - |
| 1778094957 | 12.78° C | 57% | 1012.2 hPa | 0 mm | - | 204 W/m² | - |
| 1778094653 | 12.22° C | 57% | 1012.2 hPa | 0 mm | - | 218 W/m² | - |
| 1778094351 | 12.22° C | 56% | 1012 hPa | 0 mm | - | 196 W/m² | - |
| 1778094048 | 12.22° C | 56% | 1012.3 hPa | 0 mm | - | 154 W/m² | - |
| 1778093745 | 12.22° C | 57% | 1012.6 hPa | 0 mm | - | 150 W/m² | - |
| 1778093442 | 12.22° C | 58% | 1012.5 hPa | 0 mm | - | 134 W/m² | - |
| 1778093139 | 12.22° C | 58% | 1012.6 hPa | 0 mm | - | 124 W/m² | - |
* Rain latest hour (hover to see other rain measurements)
** Current wind speed in m/s (hover to see current wind gust speed)